sat.trackr.live / text

‹ back to catalog

STARLINK-35439

NORAD 66431 · 2025-259K

PAYLOAD ACTIVE UNKNOWN

§ Identity

Operator
Country
US
Launch date
2025-11-11
Launch site
AFETR
Launch vehicle
Mass (kg)
RCS (m²)

Purposes: comms

External: N2YO · Heavens-Above · Gunter

§ Orbital elements

Epoch: 2026-05-25T04:34:03.033696Z

Period
94.27 min
Inclination
42.9984°
Eccentricity
0.0000746
Mean motion
15.27586719 rev/d
Perigee alt
482.5 km
Apogee alt
483.5 km
Semi-major
6,861.2 km
B*
3.0399e-4
RAAN
202.0919°
Arg perigee
270.5206°
Mean anomaly
89.5561°
Rev number
3,119

§ Raw data

STARLINK-354391 66431U 25259K   26145.19031289  .00008114  00000+0  30399-3 0  99942 66431  42.9984 202.0919 0000746 270.5206  89.5561 15.27586719 31199

JSON: /api/v1/satellites/66431 · /tle

For live sub-satellite position, see the globe view (requires WebGL).

§ Visibility from observer

Set your observer location to see the next 7 days of passes ≥ 10°. The values pass through the URL so the page stays shareable.

No JS? Fill the form by hand. The geolocation button needs JavaScript.